Location: Asheville, NC
(35.6000°N, 82.5500°W)
Time: 12:00:47

N. Korean satellite - Pass Details

Date: 08 March 2018
Orbit: 460 x 512 km, 97.2° (Epoch: 23 March)

Event Time Altitude Azimuth Distance (km) Brightness Sun altitude
Rises 19:02:07 0° 193° (SSW) 2,497 10.4 -7.0°
Reaches altitude 10° 19:04:23 10° 206° (SSW) 1,634 9.6 -7.4°
Maximum altitude 19:07:20 25° 264° (W) 996 9.3 -8.0°
Drops below altitude 10° 19:10:21 10° 321° (NW) 1,670 9.9 -8.7°
Sets 19:12:42 0° 335° (NNW) 2,566 10.6 -9.1°
